Terminal Aerodrome Forecast
Issued by NWS Wilmington, OH

Current Version | Previous Version | Graphics & Text | Print | Product List | Glossary On
Versions: 1 2 3 4 5 6 7 8 9 10 11 12 13 14 15 16 17 18 19 20 21 22 23 24 25 26 27 28 29 30 31
000
FTUS41 KILN 022344
TAFCVG
TAF
KCVG 022344Z 0300/0406 20005KT P6SM SCT200
     FM031400 22010KT P6SM BKN040
     FM031800 23012G20KT P6SM VCTS BKN040CB
     FM040100 29013KT P6SM SCT050=

USA.gov is the U.S. government's official web portal to all federal, state and local government web resources and services.